Temp
12 12 11 11 10 10 10 10 10 10 10 10 10 9 9 9 9 9 8 8 8 8 7 7 7 7 7 6 6 6 6 6 6 6 6 6 5 5 5 4 4 4 4 3 3 3 3 3 2 3 3 3
12 11 11 11 11 10 10 10 10 10 10 10 9 9 9 9 8 8 8 8 8 8 7 7 7 6 6 6 6 6 6 6 6 6 5 5 5 5 4 4 4 4 4 3 3 2 2 3 3 3 3 3
12 12 11 11 11 11 10 10 10 10 10 9 9 9 9 8 8 8 8 7 7 7 7 6 6 6 6 6 6 6 6 6 6 5 5 5 5 4 4 4 5 4 4 3 3 2 2 2 2 2 2 3
12 12 11 11 12 12 11 10 10 10 9 9 9 9 9 8 8 8 8 7 7 7 7 6 6 6 6 6 6 6 6 6 5 5 5 5 4 4 4 5 5 4 4 4 3 3 3 3 2 2 2 2
12 12 12 12 12 12 12 11 10 10 9 9 9 9 9 8 8 8 8 7 7 7 6 6 6 6 6 6 6 6 6 5 5 5 5 4 4 4 5 5 5 4 4 4 3 3 3 3 2 2 2 2
12 12 12 12 12 12 12 12 11 10 9 9 9 9 8 8 8 8 7 7 7 7 6 6 6 6 6 5 6 5 5 5 5 5 4 4 3 4 5 5 4 4 4 4 3 3 3 2 2 2 1 1
12 12 12 12 12 12 12 12 12 11 10 9 9 8 8 8 8 7 7 7 7 7 6 6 6 6 6 5 5 5 5 5 5 4 4 3 3 4 5 4 4 4 4 3 3 2 2 2 1 1 0 0
13 12 12 12 12 12 12 12 12 11 10 9 9 8 8 8 7 7 7 7 7 6 6 6 6 6 6 5 5 4 4 5 5 4 4 4 4 5 5 4 4 4 4 3 3 2 2 1 1 0 -0 -0
13 13 12 12 12 12 12 12 12 12 11 10 9 8 8 7 7 7 7 7 7 6 6 6 6 6 6 5 4 4 5 5 5 5 5 5 5 5 5 4 4 4 4 3 3 2 2 1 1 -0 -1 -1
13 13 12 12 12 12 12 12 12 12 11 11 10 9 8 7 7 7 7 7 6 6 6 6 6 5 6 5 5 5 5 5 5 5 5 5 5 5 5 4 4 4 4 4 3 2 2 1 1 -0 -1 -1
13 13 13 12 12 12 12 12 11 11 11 11 10 10 9 8 7 7 7 6 6 6 6 6 6 5 5 5 5 5 5 5 4 4 4 4 4 4 4 4 5 4 4 4 3 2 2 1 1 0 -1 -1
12 12 12 12 12 12 12 11 12 12 11 11 11 10 9 8 7 7 7 6 6 6 6 6 6 5 5 5 5 5 5 5 4 4 4 4 4 4 4 4 4 4 4 4 3 2 2 1 1 -0 -0 -1
13 12 12 12 12 12 12 11 12 12 11 11 11 10 10 9 8 7 7 7 7 6 6 6 5 5 5 5 5 5 4 4 4 4 4 4 4 4 4 4 4 4 4 3 3 3 2 1 1 0 -0 -1
13 12 12 12 12 12 12 12 12 11 11 11 11 11 10 10 9 8 8 7 7 6 6 6 5 5 5 5 5 5 4 4 4 4 4 4 4 4 4 3 3 3 3 3 2 2 2 2 1 0 -0 -1
12 12 12 12 12 12 12 12 11 11 11 11 11 11 10 10 9 9 8 7 7 6 6 6 5 5 5 5 5 4 4 4 3 3 3 3 3 3 2 2 2 2 2 2 2 2 2 1 1 0 -0 -1
12 12 12 12 11 12 12 11 11 11 11 11 11 11 10 10 10 9 8 7 7 6 6 5 5 5 5 5 4 4 4 3 3 3 2 2 1 1 1 1 1 1 1 1 1 1 1 1 0 -0 -1 -1
11 11 11 11 11 12 12 11 10 11 11 11 11 11 10 10 10 9 8 7 7 6 6 5 5 5 5 5 4 4 4 3 2 2 2 1 1 1 0 0 -0 -0 0 1 1 0 0 -0 -0 -0 -1 -1
11 11 11 11 11 11 10 10 10 10 11 11 10 10 10 10 10 9 8 8 7 6 6 5 5 5 5 5 4 4 3 3 2 2 1 1 1 0 -0 -0 -0 -0 0 0 0 -0 -1 -1 -1 -1 -1 -1
11 11 11 10 10 10 10 10 9 9 10 9 9 9 9 10 10 10 9 8 7 6 6 5 5 5 5 5 4 4 3 2 2 2 1 1 0 0 -0 -0 -1 -1 -0 -0 -0 -1 -1 -1 -1 -1 -1 -1
11 10 10 10 9 9 9 9 9 9 9 8 8 8 8 9 9 9 9 8 7 6 6 5 5 5 5 5 4 4 3 2 2 1 1 1 0 -0 -0 -1 -1 -1 -0 -0 -0 -1 -2 -2 -2 -2 -1 -2
10 10 9 9 9 9 9 9 9 9 8 8 8 8 8 8 8 8 8 8 8 7 6 6 5 5 5 4 4 3 3 2 2 1 1 1 0 -0 -1 -1 -1 -1 -1 -1 -1 -2 -2 -2 -3 -2 -2 -2
10 10 9 9 9 9 8 9 9 8 8 8 8 8 8 8 8 8 8 8 8 7 7 6 5 5 4 4 4 3 3 3 2 1 1 0 -0 -1 -1 -1 -2 -1 -1 -2 -2 -2 -2 -3 -3 -2 -2 -2
9 9 9 9 8 8 8 8 8 8 8 8 8 8 7 7 7 7 7 7 8 7 7 6 5 4 4 4 4 3 3 2 2 1 1 0 -0 -1 -1 -2 -2 -2 -2 -3 -3 -3 -3 -3 -3 -2 -2 -2
8 8 8 8 7 7 8 8 8 7 7 7 7 7 7 7 7 7 7 7 7 7 7 6 5 5 4 4 3 3 2 2 2 1 1 1 0 -1 -2 -2 -2 -3 -3 -4 -4 -3 -3 -3 -3 -3 -2 -2
7 7 7 7 7 8 8 8 7 7 7 7 7 7 6 6 7 6 6 7 7 7 7 6 5 4 4 3 3 3 3 3 2 2 1 1 -0 -1 -2 -2 -3 -3 -3 -4 -4 -3 -3 -3 -2 -3 -3 -3
6 6 6 6 6 7 7 7 7 7 7 7 7 6 6 6 6 6 6 6 6 7 7 6 5 5 4 4 3 3 2 2 2 1 1 0 -1 -2 -2 -2 -3 -3 -4 -5 -6 -6 -5 -4 -3 -4 -4 -4
5 5 5 5 6 6 6 6 6 6 6 6 6 6 6 5 6 6 6 6 6 6 6 6 6 5 4 4 3 2 2 2 1 1 1 0 -0 -2 -3 -3 -3 -4 -4 -5 -6 -6 -5 -5 -4 -3 -4 -5
4 4 4 5 5 5 5 5 5 5 6 5 5 5 5 5 6 6 6 6 6 6 6 6 6 5 4 3 3 2 1 1 1 1 1 0 -0 -1 -3 -4 -4 -4 -5 -5 -5 -5 -5 -6 -6 -2 -4 -7
4 4 4 4 5 5 5 5 5 5 6 5 5 5 5 6 6 5 5 5 5 5 6 6 5 4 4 3 3 2 1 1 2 2 1 1 0 -1 -2 -3 -4 -5 -5 -5 -4 -4 -4 -5 -4 -3 -5 -7
3 4 4 4 4 4 3 4 4 5 5 5 5 5 5 5 5 5 5 5 5 5 5 5 5 4 3 3 2 2 1 1 1 1 1 1 0 -0 -0 -2 -4 -5 -6 -6 -5 -5 -5 -4 -4 -5 -7 -6
3 3 3 3 3 3 3 2 3 5 5 4 4 5 5 5 5 5 5 5 5 5 5 4 4 3 3 2 2 2 1 1 1 1 2 2 1 0 -0 -2 -4 -5 -6 -7 -7 -6 -6 -6 -7 -7 -8 -6
Height
781 782 783 784 785 787 788 790 791 793 794 795 796 797 798 799 800 800 801 801 802 803 803 804 805 805 805 806 806 806 806 806 807 807 808 808 808 808 808 808 808 809 809 809 809 809 809 808 808 808 808 808
779 781 782 783 784 785 786 788 790 791 793 794 795 796 797 798 798 799 800 800 801 802 803 803 804 805 805 805 805 805 805 805 805 806 806 806 806 806 806 806 807 807 807 808 808 808 807 807 807 807 807 807
778 779 780 781 782 783 784 786 788 789 791 792 794 795 796 796 797 798 798 799 800 801 802 802 803 804 804 804 804 804 804 804 804 805 805 805 805 805 804 805 805 805 806 806 806 806 806 806 806 806 806 806
776 777 778 780 780 781 782 784 786 787 789 790 792 793 794 795 795 796 797 798 799 800 801 801 801 802 803 804 804 804 804 804 803 803 804 804 803 803 803 803 804 804 805 805 805 805 805 805 805 805 805 804
775 776 777 778 779 780 781 782 784 785 787 788 790 791 792 793 794 795 796 797 798 799 800 799 800 801 802 803 803 803 803 803 803 803 803 803 802 801 801 802 802 803 803 804 804 804 804 804 804 804 803 803
773 774 775 776 777 778 779 780 782 783 785 786 788 789 791 791 792 793 794 796 796 797 798 798 798 800 801 802 802 802 802 802 801 802 801 801 800 799 800 800 801 802 802 802 802 803 803 803 803 802 802 802
772 773 773 774 775 776 777 779 780 781 783 784 786 787 789 790 790 792 793 794 795 796 796 796 797 798 799 800 801 801 800 800 800 800 800 799 798 797 798 799 800 800 800 801 801 801 801 801 801 801 801 800
769 770 771 772 774 775 776 777 778 779 781 782 784 785 786 787 788 790 791 792 793 794 795 795 796 797 798 798 799 798 798 798 798 798 797 796 796 796 797 797 798 798 799 799 799 800 800 800 800 800 799 799
766 768 769 770 771 773 774 775 776 777 778 780 781 782 784 785 786 787 789 790 791 792 793 793 794 795 796 796 796 796 796 796 796 796 795 795 794 795 795 795 796 797 797 797 798 798 799 799 799 798 798 798
764 766 766 767 769 770 771 772 773 775 776 777 778 780 781 783 784 785 786 788 789 789 790 791 792 793 793 794 794 794 794 795 795 795 794 794 794 793 793 794 794 795 795 796 796 797 797 797 797 797 797 797
761 762 763 765 766 767 768 769 771 772 773 774 776 778 779 780 781 782 784 785 786 787 788 789 790 791 791 791 792 792 793 793 793 793 793 793 792 792 792 792 792 793 793 794 794 795 795 796 796 796 796 796
757 758 760 762 763 764 765 767 768 768 770 772 773 775 776 777 778 780 781 782 783 784 785 786 787 789 789 789 790 790 791 791 791 791 791 791 791 791 791 791 791 791 791 792 792 792 793 793 794 794 794 794
753 755 757 758 759 760 762 763 764 765 767 769 770 772 773 774 775 776 778 779 780 782 783 784 785 786 786 787 788 788 789 789 789 790 790 790 790 790 790 790 790 790 790 790 789 789 790 791 791 792 792 792
749 751 752 754 755 757 759 759 760 762 763 765 766 768 769 770 771 772 774 775 777 778 779 781 782 783 784 785 785 786 787 787 788 788 788 788 788 788 788 789 788 788 788 788 788 787 787 788 789 789 790 790
746 747 748 749 752 753 754 755 757 758 759 761 762 763 765 766 768 769 770 772 774 775 776 778 779 780 781 782 783 784 785 786 787 787 787 787 788 788 787 787 787 787 787 787 786 785 785 786 786 787 788 788
742 743 744 746 748 749 750 751 753 754 755 756 757 759 761 762 764 766 767 769 771 772 774 775 776 778 779 780 782 783 784 785 785 786 786 786 786 787 786 786 786 786 786 786 785 784 784 784 785 785 786 786
738 739 741 742 743 744 746 748 748 749 750 751 753 755 756 758 761 762 764 765 767 769 771 773 774 775 776 778 780 781 782 782 783 784 784 784 785 785 785 785 785 785 785 784 784 783 783 783 783 783 784 784
735 736 737 738 739 741 742 744 744 745 746 748 749 751 753 755 757 758 760 762 764 766 768 769 771 772 773 775 777 778 779 780 781 781 782 782 783 783 783 784 784 784 784 783 783 783 782 782 782 782 782 782
731 732 734 735 737 738 739 740 741 742 743 745 746 747 749 751 753 755 757 758 761 763 764 766 767 768 770 772 774 776 777 778 778 779 780 780 781 781 781 782 782 782 783 783 782 782 782 782 781 781 780 780
729 731 732 733 734 735 737 737 738 739 740 741 743 744 746 747 749 751 753 755 757 759 761 762 764 765 768 770 771 773 774 775 776 777 778 778 779 779 780 780 781 781 781 781 781 781 781 781 780 779 779 778
728 729 730 730 732 732 733 734 734 735 736 738 739 740 741 743 745 747 749 751 753 755 757 758 760 762 765 767 768 770 771 772 773 774 775 776 777 777 778 778 779 779 780 780 780 779 779 779 778 777 777 776
726 726 727 727 728 729 729 729 729 731 732 733 734 735 737 739 741 743 745 747 749 751 753 755 756 759 762 763 765 766 768 769 770 771 772 773 774 775 776 776 777 777 778 778 778 777 777 777 776 775 775 774
725 725 725 725 725 725 725 724 725 727 727 728 729 730 732 734 736 738 741 743 745 747 749 750 752 754 757 759 761 762 764 765 766 767 769 770 772 772 773 774 775 775 776 777 776 775 775 774 774 773 773 772
727 725 724 723 723 722 720 720 721 722 722 724 724 726 728 730 732 733 736 738 740 743 744 746 747 749 752 754 756 757 759 760 762 763 765 767 768 769 771 771 772 773 774 774 774 773 772 772 772 771 770 769
731 729 727 725 722 720 718 719 720 719 719 720 721 722 724 725 727 729 732 734 736 738 740 742 743 745 747 749 751 752 754 756 758 760 762 763 765 766 768 769 770 771 772 773 773 771 770 769 769 768 767 766
733 732 731 729 726 723 721 721 720 719 719 720 720 721 722 723 724 726 728 730 732 734 736 738 739 741 743 744 746 748 750 753 754 756 758 760 761 763 764 766 767 769 770 772 772 772 770 768 766 766 765 764
733 732 731 729 727 725 724 722 722 721 720 720 720 719 720 722 723 724 725 726 728 730 732 734 735 737 738 740 742 744 746 749 751 752 754 756 757 760 761 763 765 766 768 769 771 773 772 770 769 765 764 763
733 731 730 727 725 724 723 722 721 721 720 719 719 718 719 719 720 721 722 723 725 727 728 730 731 733 734 736 738 740 742 743 746 748 750 752 754 756 758 760 761 763 765 766 768 771 771 773 772 765 762 763
732 729 728 726 724 723 722 720 720 719 718 718 718 718 717 717 718 719 719 721 722 724 725 726 727 729 730 732 734 736 737 739 741 743 745 748 750 751 753 755 758 760 762 763 764 767 768 769 768 764 764 764
733 730 728 727 724 723 722 720 719 718 718 717 717 716 715 716 716 717 717 718 719 721 722 723 724 725 727 728 730 731 733 735 737 739 741 744 745 747 749 751 754 756 758 760 761 762 763 763 763 764 767 765
734 731 730 729 727 726 724 721 719 717 717 716 716 715 714 715 714 714 715 715 716 717 719 720 720 722 723 724 726 727 729 731 733 735 737 740 741 743 746 747 749 752 754 757 758 759 760 761 762 764 766 766
Wind_Speed
22 22 21 21 20 19 17 16 16 16 15 15 15 15 15 14 14 14 13 14 13 13 13 13 13 14 14 13 13 13 12 11 10 9 9 9 8 8 7 6 4 3 2 1 0 0 2 4 6 8 9 8
23 23 23 23 22 21 20 19 18 17 16 16 16 15 15 15 15 15 14 14 14 14 14 13 13 14 14 14 13 13 12 11 11 10 9 9 8 8 7 6 6 5 3 1 1 1 4 6 6 8 7 7
25 24 25 24 24 23 22 22 21 20 18 17 17 17 16 17 17 17 17 16 15 14 14 14 15 14 14 14 13 13 12 12 11 10 10 9 9 8 9 9 8 6 4 3 2 2 5 7 7 7 6 6
26 26 26 26 25 25 24 24 23 23 21 19 19 20 20 20 20 20 20 18 17 15 15 17 18 16 14 14 13 13 12 12 12 11 10 9 9 10 11 11 10 7 5 5 5 5 7 7 7 6 7 7
27 27 27 27 27 26 26 25 25 25 24 22 22 22 22 22 22 22 23 21 20 18 17 20 21 18 14 13 13 13 13 13 12 12 11 10 10 12 13 12 10 8 7 7 7 7 8 7 7 7 7 8
28 28 28 28 28 27 27 26 26 26 26 25 24 23 23 24 24 24 24 23 22 21 21 23 22 19 16 13 13 13 13 14 13 12 11 11 11 14 14 13 10 8 8 7 7 7 8 7 7 7 8 9
29 29 29 29 29 28 28 28 28 27 27 27 26 25 25 25 26 26 26 24 23 23 24 25 22 20 18 14 12 14 15 17 15 13 13 14 15 16 14 12 10 9 8 7 7 7 7 7 7 8 9 11
31 30 30 30 30 30 29 29 29 28 28 28 28 27 27 27 27 28 27 26 24 25 26 26 24 21 19 16 14 17 19 19 18 16 17 18 18 17 14 12 11 9 8 8 7 7 7 7 8 8 10 11
34 33 32 32 32 31 31 30 30 30 30 30 30 29 29 29 28 29 29 27 26 27 27 27 26 23 22 21 20 22 22 21 20 20 20 19 18 17 15 13 12 11 9 8 8 8 8 8 8 9 11 12
37 36 35 34 34 33 33 32 32 31 31 32 31 31 31 30 30 30 30 29 28 28 29 28 27 25 24 24 24 24 22 21 20 20 20 19 18 17 15 14 13 12 10 10 9 9 9 9 9 10 11 12
40 39 39 38 37 36 35 34 33 34 34 34 33 32 33 32 32 32 32 31 30 30 30 30 29 27 26 25 26 25 22 21 20 20 20 20 19 17 16 15 14 13 12 11 10 10 10 10 10 11 12 13
43 42 42 41 40 39 38 37 36 36 35 35 34 34 34 34 34 34 33 33 32 31 32 32 30 28 27 27 26 24 23 22 21 21 21 20 19 18 17 16 15 14 12 11 10 10 10 11 11 12 12 13
45 45 44 44 43 43 41 40 39 38 37 36 36 36 36 36 36 35 35 35 34 33 33 33 31 30 29 28 26 25 24 23 22 21 21 20 19 18 17 16 15 14 13 12 11 10 10 11 12 12 13 13
47 46 46 46 46 45 44 43 42 40 39 38 37 37 38 38 38 37 37 36 35 34 35 34 33 32 30 29 28 26 25 23 22 21 21 20 19 19 18 16 15 14 13 12 11 11 10 11 12 13 13 13
48 47 47 48 47 46 46 45 45 43 42 41 40 39 39 39 39 39 39 38 37 36 35 35 34 33 32 31 29 27 25 23 22 21 21 20 19 18 17 16 15 14 13 12 12 11 11 11 12 12 13 13
47 47 48 47 47 47 47 46 45 45 44 44 43 41 40 40 39 40 40 39 38 37 36 36 35 34 33 32 29 27 25 23 22 21 20 19 18 17 16 16 15 14 13 12 12 12 11 11 11 12 13 12
46 47 47 46 47 47 47 46 45 46 46 46 45 43 42 41 40 40 40 40 39 38 37 36 36 35 34 32 30 27 25 23 22 21 20 19 18 18 17 16 15 14 14 13 13 13 12 12 12 12 12 12
45 46 46 45 46 45 45 45 45 46 46 46 45 45 44 42 41 41 41 41 40 39 38 37 37 36 35 33 30 28 26 25 23 22 21 20 19 18 17 17 16 15 15 15 15 14 14 13 12 13 12 12
44 45 44 44 44 43 43 43 44 45 45 45 44 44 44 43 42 42 42 41 40 39 38 38 38 37 35 33 31 29 27 26 24 23 22 21 20 19 19 18 17 17 16 16 16 16 15 14 14 13 13 13
41 41 40 41 41 41 41 41 42 43 43 42 43 42 43 44 43 43 42 41 41 40 39 39 39 38 36 34 32 30 28 27 25 24 23 22 21 20 20 19 18 18 17 18 18 16 16 15 15 15 14 14
36 37 38 38 38 38 39 40 41 42 41 41 42 42 43 43 43 43 42 42 41 41 40 40 39 38 36 35 33 31 30 28 27 25 24 23 22 21 20 20 19 19 19 19 18 18 18 17 17 16 16 15
32 33 34 35 36 36 37 39 41 40 40 41 42 42 43 43 42 42 42 42 42 41 41 41 40 39 37 36 34 32 31 30 28 26 25 24 23 22 21 20 19 19 19 18 19 19 20 19 19 18 18 17
27 28 29 31 31 33 35 38 39 39 40 41 41 42 42 42 42 42 42 42 42 42 41 41 41 39 38 37 36 34 32 31 29 28 26 25 24 23 21 20 19 18 17 18 19 21 22 22 21 20 19 18
23 23 25 27 28 30 34 36 36 37 38 39 40 41 41 41 41 42 41 41 42 42 42 42 41 40 39 38 37 35 34 33 32 30 28 27 26 24 21 20 19 18 17 17 19 22 23 23 22 21 19 19
20 20 20 21 24 29 32 31 32 34 36 37 39 39 39 40 41 41 41 41 41 41 42 42 41 40 39 39 38 37 37 36 34 32 29 28 26 24 22 21 20 19 16 13 14 16 18 20 19 16 14 13
20 20 18 19 21 24 26 25 27 31 33 34 36 36 38 39 39 39 40 41 41 41 42 42 42 42 41 40 40 39 37 36 34 32 31 29 26 23 22 22 20 18 14 8 5 5 8 13 12 7 6 4
19 20 20 20 22 22 23 24 24 26 28 29 31 33 34 36 37 38 40 40 41 42 42 42 43 43 42 42 41 39 37 36 35 33 32 31 29 24 21 20 19 18 16 10 4 1 2 4 4 3 3 2
25 21 20 20 21 21 22 24 23 23 24 25 26 28 30 33 36 38 39 40 41 41 42 43 43 43 43 42 42 41 39 38 37 36 34 32 31 27 21 18 19 18 18 16 10 2 0 0 1 3 2 4
37 31 26 24 23 22 20 21 22 22 24 23 23 26 29 31 33 35 38 39 40 41 42 42 43 43 42 42 42 41 40 40 39 38 37 34 33 31 26 21 19 17 17 19 17 10 4 1 1 2 2 4
43 39 34 29 26 23 21 21 22 22 23 23 23 26 28 29 31 33 35 37 39 40 41 42 42 42 42 41 41 41 40 40 39 39 38 36 34 33 31 25 20 18 17 17 19 18 14 10 6 3 2 3
44 41 38 33 27 24 21 21 25 26 26 25 25 26 26 27 29 30 33 35 37 39 41 41 41 41 41 41 41 40 40 39 39 39 38 37 35 33 32 28 23 21 20 16 17 21 21 18 14 9 5 2
Wind_Direction
206 206 205 203 202 202 204 205 206 209 213 214 213 213 213 214 213 213 212 211 209 207 206 203 200 197 193 189 187 186 182 177 172 165 157 153 146 139 136 147 163 177 162 121 87 41 285 278 291 305 324 334
209 208 208 206 205 204 204 206 207 209 212 216 216 216 216 216 216 215 214 212 212 211 209 207 204 203 200 196 192 190 185 180 177 172 162 155 149 149 165 190 204 207 196 194 226 263 273 277 293 309 324 329
210 210 211 209 207 205 205 207 209 210 212 216 217 218 218 218 220 220 217 214 213 213 211 210 208 207 205 202 197 193 189 182 180 176 166 162 160 171 197 217 225 223 218 229 237 252 274 286 304 318 327 331
212 212 213 212 211 208 207 208 209 210 212 216 219 221 222 223 225 225 223 219 216 215 214 217 219 214 207 206 202 197 193 186 184 180 170 167 178 199 217 228 232 231 233 242 247 257 274 292 307 316 328 335
215 214 215 215 214 212 212 210 210 210 212 216 220 223 224 226 228 228 227 225 222 218 216 225 230 222 210 208 206 200 193 189 187 183 175 172 189 214 227 234 235 235 240 245 253 264 278 290 299 308 324 334
218 218 219 219 218 216 215 214 213 212 212 214 218 223 224 226 228 229 230 228 227 222 219 227 234 227 212 209 208 200 195 197 194 185 181 179 196 220 230 235 234 236 244 249 257 271 285 292 301 314 328 335
221 221 222 223 222 221 219 219 218 216 214 215 217 221 224 226 228 230 232 231 230 226 224 228 234 230 214 208 208 201 202 208 203 190 187 192 206 223 232 234 235 241 250 257 267 279 291 297 308 320 331 335
224 223 224 226 226 226 224 223 223 221 219 217 217 220 223 227 229 231 233 234 232 228 228 230 233 231 217 208 205 206 212 215 209 202 203 208 217 226 231 233 236 244 255 266 276 285 293 300 309 319 327 330
226 225 226 228 228 229 228 227 226 226 224 222 220 220 222 226 229 232 234 234 233 230 231 232 233 233 224 213 211 216 221 221 217 215 216 219 223 226 228 231 236 244 256 267 277 286 292 298 305 315 321 325
229 229 229 229 229 230 229 229 229 229 228 227 224 223 223 226 229 232 234 235 235 233 233 234 234 234 230 222 220 223 225 227 225 223 223 225 226 227 228 230 235 242 252 263 274 283 289 295 301 309 315 320
232 232 232 232 232 232 231 230 230 231 231 230 229 227 227 227 229 232 234 236 236 235 234 235 235 234 233 228 227 228 229 231 230 228 227 227 228 229 230 230 235 241 248 258 270 279 287 293 298 304 310 315
233 233 234 234 234 234 233 232 232 232 232 232 232 231 231 230 231 233 235 237 237 236 235 236 236 235 234 232 231 231 233 234 232 231 229 229 231 230 231 232 235 240 246 256 266 275 283 290 296 301 307 311
233 234 234 234 234 235 235 235 235 234 234 233 233 233 233 233 232 233 235 237 238 238 236 236 236 235 235 234 234 234 235 234 233 233 231 231 232 233 233 234 236 240 246 254 262 271 280 287 293 299 304 308
234 234 234 235 236 236 236 237 237 236 236 235 235 235 235 234 234 235 236 237 238 238 237 237 236 236 236 235 236 237 236 235 235 235 234 234 234 234 233 234 237 241 248 254 261 269 278 285 291 295 300 304
234 234 235 237 237 237 237 238 237 237 237 237 236 236 236 236 236 236 237 238 238 239 238 238 237 237 236 236 236 237 236 236 237 237 236 238 238 238 237 237 240 243 250 256 261 268 276 282 287 292 296 299
235 235 236 237 237 238 240 239 238 238 238 238 238 237 237 237 237 237 238 238 238 239 239 239 238 238 237 236 236 236 237 237 238 239 238 240 240 240 240 241 243 246 252 258 262 268 273 278 282 286 291 293
237 237 237 237 238 240 240 239 238 239 240 241 239 238 237 238 238 238 238 238 238 239 240 240 239 239 238 238 237 237 237 237 238 239 238 238 238 239 240 243 246 249 255 261 264 268 271 275 278 283 287 288
239 240 239 239 240 240 240 240 240 241 241 242 240 239 238 238 238 239 239 238 238 239 239 239 239 240 239 239 237 237 237 237 237 239 238 238 238 238 241 244 248 254 260 264 266 268 271 274 277 281 283 284
241 241 241 241 241 241 241 242 242 242 242 242 240 239 239 238 239 239 239 239 239 239 239 238 239 239 240 239 237 236 237 236 237 238 239 239 239 239 242 244 250 256 261 264 266 269 272 275 278 281 282 282
242 242 242 243 243 243 244 244 244 245 244 243 241 240 240 239 239 239 238 238 238 239 239 239 240 240 240 239 237 236 236 235 236 237 238 239 240 241 243 247 252 257 260 263 266 269 273 277 280 282 283 283
245 245 245 245 246 246 246 246 247 247 246 244 243 242 241 240 239 238 238 238 238 239 240 240 241 241 240 239 238 236 235 236 236 237 238 239 241 242 244 249 254 258 261 264 268 272 275 279 281 282 284 284
250 249 248 248 248 249 248 249 249 248 247 245 244 243 242 241 240 239 238 238 238 239 240 241 241 240 239 238 238 236 235 236 236 236 238 238 240 242 244 249 254 260 263 267 272 274 277 280 282 283 283 284
255 252 250 249 249 249 249 250 250 248 247 246 245 244 243 242 241 239 238 238 238 239 239 240 240 239 238 237 236 235 233 233 233 232 233 235 238 240 244 248 252 259 264 269 273 276 281 283 283 284 284 284
265 258 253 249 247 248 250 250 249 248 248 247 246 245 244 242 241 240 238 238 238 238 238 239 240 239 237 236 234 233 231 231 232 231 232 234 236 236 240 244 249 253 259 269 276 281 284 286 287 285 282 279
283 271 263 258 252 253 255 254 252 252 251 249 248 247 244 243 242 240 238 237 237 237 238 239 239 239 237 236 234 233 233 234 234 232 233 234 234 234 236 240 245 248 254 270 282 289 292 295 294 283 278 275
301 289 280 277 274 272 272 267 263 261 259 256 253 250 248 245 242 241 239 238 237 237 238 238 238 238 238 237 235 234 233 234 233 231 231 229 228 230 233 238 241 241 243 248 265 298 309 312 307 271 260 274
325 308 297 291 290 290 288 285 281 276 271 267 262 257 251 247 245 244 242 240 238 238 238 238 238 238 238 237 235 232 229 229 229 229 229 227 226 225 226 232 236 236 233 221 206 325 305 320 333 278 257 294
354 338 324 313 304 299 292 287 287 285 280 272 265 260 254 251 249 246 244 241 239 238 239 239 238 238 238 237 235 232 227 226 227 227 227 227 226 221 215 219 229 232 231 222 210 195 163 130 327 277 297 319
6 359 350 341 331 320 306 295 288 283 281 276 267 263 260 257 253 248 245 242 240 239 240 240 240 238 237 236 234 231 228 226 228 228 228 227 226 222 218 215 218 221 225 226 221 210 197 194 234 241 318 327
8 6 359 350 340 331 318 306 299 290 286 284 279 273 267 262 257 252 247 244 242 241 240 240 241 239 237 235 234 231 229 227 227 227 227 228 226 225 226 219 211 211 216 223 227 222 218 224 233 241 341 347
5 6 3 356 346 335 324 310 307 306 300 294 291 286 278 269 263 257 252 247 244 242 241 241 241 240 238 236 234 232 228 225 225 227 228 229 228 228 229 221 210 212 211 210 221 226 225 226 235 245 247 234